Date String (YYYY-MM-DD hh:mm:ss) UTC,Instrument flags,absolute air pressure of the measurement (hPa),sample flow rate (lpm),inlet stack bypass flow (lpm),air temperature of the measurement (°C),ambient temperature measured by the external sensor (°C),aerosol sample conditioner tube jacket temperature (°C),OPC LED temperature (°C),internal box temperature (°C),relative humidity of the measurement (%),span deviation,mass concentration of particles derived from Lorenz-Mie calculation of OPC scattering (μg/m³),mass concentration of particles derived from Lorenz-Mie calculation of OPC scattering (μg/m³),mass concentration of particles derived from Lorenz-Mie calculation of OPC scattering (μg/m³)
DateTimeUTC,F1_M11,P_M11,Q1_M11,Q2_M11,T1_M11,T2_M11,T3_M11,T4_M11,T5_M11,U1_M11,ZSPAN_M11,X0_M11,X2_M11,X1_M11
2023-10-16 02:00:00,SystemResetWarning,0839.7,4.99,000.00,028.9,027.7,000.0,037.3,030.6,13.5,0000.0,0008.99,0003.54,0003.17
2023-10-16 02:01:00,SystemResetWarning,0839.7,5.02,000.00,029.0,027.7,000.0,037.3,030.6,13.5,0000.0,0009.17,0003.52,0003.16
2023-10-16 02:02:00,SystemResetWarning,0839.6,5.00,000.00,029.0,027.7,000.0,037.3,030.6,13.5,0000.0,0009.07,0003.51,0003.17
2023-10-16 02:03:00,SystemResetWarning,0839.7,5.00,000.00,029.0,027.7,000.0,037.3,030.6,13.5,0000.0,0008.99,0003.52,0003.17
2023-10-16 02:04:00,SystemResetWarning,0839.7,4.99,000.00,029.0,027.7,000.0,037.3,030.6,13.5,0000.0,0009.46,0003.52,0003.16
2023-10-16 02:05:00,SystemResetWarning,0839.7,5.00,000.00,029.0,027.7,000.0,037.3,030.6,13.4,0000.0,0008.98,0003.51,0003.16
2023-10-16 02:06:00,SystemResetWarning,0839.7,4.99,000.00,029.0,026.5,000.0,037.3,030.6,13.4,0000.0,0009.08,0003.52,0003.16
2023-10-16 02:07:00,SystemResetWarning,0839.7,5.00,000.00,028.9,024.6,000.0,037.3,030.4,13.5,0000.0,0009.09,0003.53,0003.14
2023-10-16 02:08:00,SystemResetWarning,0839.6,5.00,000.00,028.8,024.2,000.0,037.2,030.1,13.5,0000.0,0008.80,0003.56,0003.14
2023-10-16 02:09:00,SystemResetWarning,0839.6,5.02,000.00,028.6,024.4,000.0,037.2,029.9,13.6,0000.0,0008.76,0003.57,0003.13
2023-10-16 02:10:00,SystemResetWarning,0839.7,5.00,000.00,028.5,024.7,000.0,037.2,029.9,13.7,0000.0,0008.62,0003.62,0003.14
2023-10-16 02:11:00,SystemResetWarning,0839.7,5.00,000.00,028.5,025.1,000.0,037.1,029.9,13.8,0000.0,0008.76,0003.64,0003.14
2023-10-16 02:12:00,SystemResetWarning,0839.7,5.00,000.00,028.4,025.5,000.0,037.1,029.9,13.8,0000.0,0008.62,0003.68,0003.15
2023-10-16 02:13:00,SystemResetWarning,0839.7,4.99,000.00,028.4,025.8,000.0,037.1,029.9,13.8,0000.0,0008.70,0003.71,0003.14
2023-10-16 02:14:00,SystemResetWarning,0839.7,5.00,000.00,028.4,026.0,000.0,037.0,030.0,13.8,0000.0,0008.74,0003.73,0003.15
2023-10-16 02:15:00,SystemResetWarning,0839.7,5.00,000.00,028.4,026.2,000.0,037.0,030.0,13.8,0000.0,0008.56,0003.76,0003.15
2023-10-16 02:16:00,SystemResetWarning,0839.7,5.01,000.00,028.4,026.4,000.0,037.0,030.0,13.8,0000.0,0009.18,0003.76,0003.15
2023-10-16 02:17:00,SystemResetWarning,0839.7,5.00,000.00,028.4,026.6,000.0,037.0,030.0,13.8,0000.0,0009.83,0003.81,0003.15
2023-10-16 02:18:00,SystemResetWarning,0839.7,4.99,000.00,028.4,026.7,000.0,037.0,030.0,13.8,0000.0,0010.23,0003.84,0003.15
2023-10-16 02:19:00,SystemResetWarning,0839.7,4.99,000.00,028.4,026.8,000.0,037.0,030.0,13.8,0000.0,0010.55,0003.85,0003.16
2023-10-16 02:20:00,SystemResetWarning,0839.7,5.00,000.00,028.4,026.9,000.0,037.0,030.0,13.8,0000.0,0010.44,0003.83,0003.15
2023-10-16 02:21:00,SystemResetWarning,0839.7,5.00,000.00,028.4,026.9,000.0,037.0,030.1,13.8,0000.0,0010.21,0003.80,0003.15
2023-10-16 02:22:00,SystemResetWarning,0839.7,5.00,000.00,028.4,027.0,000.0,036.9,030.1,13.8,0000.0,0010.03,0003.77,0003.15
2023-10-16 02:23:00,SystemResetWarning,0839.7,5.00,000.00,028.5,027.0,000.0,036.9,030.1,13.8,0000.0,0009.85,0003.78,0003.16
2023-10-16 02:24:00,SystemResetWarning,0839.7,5.00,000.00,028.5,027.1,000.0,036.9,030.1,13.8,0000.0,0010.95,0003.77,0003.17
2023-10-16 02:25:00,SystemResetWarning,0839.7,5.00,000.00,028.5,027.1,000.0,036.9,030.2,13.8,0000.0,0011.54,0003.75,0003.17
2023-10-16 02:26:00,SystemResetWarning,0839.7,5.00,000.00,028.5,027.1,000.0,036.9,030.2,13.7,0000.0,0012.52,0003.72,0003.17
2023-10-16 02:27:00,SystemResetWarning,0839.7,5.00,000.00,028.5,027.2,000.0,036.9,030.2,13.7,0000.0,0012.13,0003.71,0003.18
2023-10-16 02:28:00,SystemResetWarning,0839.7,4.99,000.00,028.5,027.2,000.0,036.9,030.2,13.7,0000.0,0011.40,0003.69,0003.18
2023-10-16 02:29:00,SystemResetWarning,0839.7,4.99,000.00,028.6,027.2,000.0,037.0,030.2,13.7,0000.0,0010.83,0003.63,0003.18
2023-10-16 02:30:00,SystemResetWarning,0839.7,5.00,000.00,028.6,027.2,000.0,037.0,030.2,13.7,0000.0,0009.88,0003.58,0003.18
2023-10-16 02:31:00,SystemResetWarning,0839.7,5.01,000.00,028.6,027.3,000.0,037.0,030.2,13.7,0000.0,0009.87,0003.57,0003.18
2023-10-16 02:32:00,SystemResetWarning,0839.7,5.01,000.00,028.6,027.3,000.0,037.0,030.2,13.7,0000.0,0010.59,0003.56,0003.18
2023-10-16 02:33:00,SystemResetWarning,0839.7,4.99,000.00,028.6,027.3,000.0,037.0,030.2,13.6,0000.0,0011.09,0003.57,0003.18
2023-10-16 02:34:00,SystemResetWarning,0839.7,4.98,000.00,028.6,027.3,000.0,037.0,030.3,13.6,0000.0,0011.28,0003.55,0003.19
2023-10-16 02:35:00,SystemResetWarning,0839.7,5.01,000.00,028.6,027.3,000.0,037.0,030.3,13.6,0000.0,0010.72,0003.52,0003.17
2023-10-16 02:36:00,SystemResetWarning,0839.7,5.00,000.00,028.6,027.3,000.0,037.0,030.3,13.6,0000.0,0009.83,0003.50,0003.16
2023-10-16 02:37:00,SystemResetWarning,0839.6,4.98,000.00,028.7,027.3,000.0,037.0,030.3,13.6,0000.0,0008.81,0003.49,0003.16
2023-10-16 02:38:00,SystemResetWarning,0839.7,5.00,000.00,028.7,027.3,000.0,037.0,030.3,13.6,0000.0,0008.27,0003.47,0003.15
2023-10-16 02:39:00,SystemResetWarning,0839.7,5.01,000.00,028.7,027.4,000.0,037.0,030.3,13.6,0000.0,0008.28,0003.46,0003.14
2023-10-16 02:40:00,SystemResetWarning,0839.7,5.00,000.00,028.7,027.4,000.0,037.0,030.3,13.6,0000.0,0008.29,0003.46,0003.14
2023-10-16 02:41:00,SystemResetWarning,0839.7,4.98,000.00,028.7,027.4,000.0,037.1,030.4,13.6,0000.0,0008.83,0003.47,0003.15
2023-10-16 02:42:00,SystemResetWarning,0839.7,5.00,000.00,028.7,027.4,000.0,037.1,030.4,13.5,0000.0,0008.94,0003.46,0003.15
2023-10-16 02:43:00,SystemResetWarning,0839.7,5.02,000.00,028.7,027.4,000.0,037.1,030.4,13.5,0000.0,0008.28,0003.47,0003.15
2023-10-16 02:44:00,SystemResetWarning,0839.8,5.01,000.00,028.7,027.4,000.0,037.1,030.4,13.5,0000.0,0007.71,0003.45,0003.15
2023-10-16 02:45:00,SystemResetWarning,0839.8,4.99,000.00,028.7,027.4,000.0,037.1,030.4,13.5,0000.0,0007.69,0003.46,0003.15
2023-10-16 02:46:00,SystemResetWarning,0839.8,5.00,000.00,028.7,027.4,000.0,037.1,030.4,13.5,0000.0,0008.95,0003.48,0003.16
2023-10-16 02:47:00,SystemResetWarning,0839.8,4.99,000.00,028.7,027.4,000.0,037.1,030.4,13.5,0000.0,0008.93,0003.50,0003.17
2023-10-16 02:48:00,SystemResetWarning,0839.8,5.01,000.00,028.7,027.4,000.0,037.1,030.4,13.5,0000.0,0008.99,0003.51,0003.17
2023-10-16 02:49:00,SystemResetWarning,0840.0,5.01,000.00,028.8,027.4,000.0,037.1,030.4,13.5,0000.0,0009.04,0003.53,0003.17
2023-10-16 02:50:00,SystemResetWarning,0839.9,5.00,000.00,028.8,027.4,000.0,037.1,030.5,14.1,0000.0,0009.11,0003.53,0003.18
2023-10-16 02:51:00,SystemResetWarning,0840.0,5.00,000.00,028.8,027.5,000.0,037.2,030.5,14.5,0000.0,0009.18,0003.55,0003.18
2023-10-16 02:52:00,SystemResetWarning,0840.0,5.00,000.00,028.8,027.5,000.0,037.2,030.5,14.4,0000.0,0008.89,0003.55,0003.19
2023-10-16 02:53:00,SystemResetWarning,0840.1,5.00,000.00,028.8,027.5,000.0,037.2,030.5,14.1,0000.0,0008.49,0003.54,0003.19
2023-10-16 02:54:00,SystemResetWarning,0840.1,4.99,000.00,028.8,027.5,000.0,037.2,030.5,14.3,0000.0,0008.49,0003.55,0003.19
2023-10-16 02:55:00,SystemResetWarning,0840.1,5.00,000.00,028.8,027.5,000.0,037.2,030.5,14.2,0000.0,0008.53,0003.57,0003.20
2023-10-16 02:56:00,SystemResetWarning,0840.1,5.00,000.00,028.8,027.5,000.0,037.2,030.5,14.3,0000.0,0008.56,0003.58,0003.20
2023-10-16 02:57:00,SystemResetWarning,0840.1,5.00,000.00,028.8,027.5,000.0,037.2,030.6,14.3,0000.0,0008.23,0003.59,0003.20
2023-10-16 02:58:00,SystemResetWarning,0840.1,5.01,000.00,028.9,027.5,000.0,037.2,030.6,14.3,0000.0,0008.10,0003.60,0003.20
2023-10-16 02:59:00,SystemResetWarning,0840.1,5.01,000.00,028.9,027.6,000.0,037.2,030.6,14.2,0000.0,0008.31,0003.61,0003.21
